Weather History for EIDW - May, 2013

Change the Weather History Date:

Monday, May 27, 2013

  Actual Average Record
Temperature  
Mean Temperature 52 °F -  
Max Temperature 57 °F 62 °F 68 °F (2001)
Min Temperature 46 °F 48 °F 35 °F (2014)
Degree Days  
Heating Degree Days 14    
Growing Degree Days 2 (Base 50)    
Moisture  
Dew Point 43 °F    
Average Humidity 75    
Maximum Humidity 94    
Minimum Humidity 54    
Precipitation  
Precipitation 0.24 in 0.07 in - ()
Sea Level Pressure  
Sea Level Pressure 29.51 in    
Wind  
Wind Speed 13 mph ()    
Max Wind Speed 20 mph    
Max Gust Speed 26 mph    
Visibility 6.6 miles    
Events Rain    
Averages and records for this station are not official NWS values.
T = Trace of Precipitation, MM = Missing Value Source: Averaged Metar Reports

Daily Weather History Graph

Daily Weather History Graph

Search for Another Location

Airport or City:

Trip Planner

Search our weather history database for the weather conditions in past years. The results will help you decide how hot, cold, wet, or windy it might be!

Date:

Astronomy

May. 27, 2013 Rise Set
Actual Time 5:08 AM IST 9:37 PM IST
Civil Twilight 4:20 AM IST 10:25 PM IST
Nautical Twilight 3:05 AM IST 11:41 PM IST
Astronomical Twilight 1:54 AM IST 12:49 AM IST
Moon 11:54 PM IST (5/27) 7:35 AM IST (5/27)
Length of Visible Light 18h 05m
Length of Day
16h 28m
Waning Gibbous, 92% of the Moon is Illuminated
May 27
Waning Gibbous
May 31
Last Quarter
Jun 8
New
Jun 16
First Quarter
Jun 23
Full

Hourly Weather History & Observations

Time (IST) Temp. Dew Point Humidity Pressure Visibility Wind Dir Wind Speed Gust Speed Precip Events Conditions
12:00 AM 51.8 °F 42.8 °F 71% 29.77 in 6.2 mi SSW 15.0 mph 26.5 mph N/A   Mostly Cloudy
12:30 AM 51.8 °F 42.8 °F 71% 29.74 in 6.2 mi SSW 16.1 mph - N/A   Mostly Cloudy
1:00 AM 51 °F 42 °F 64% 29.75 in 19 mi South 17.9 mph - -   Mostly Cloudy
1:00 AM 51.8 °F 42.8 °F 71% 29.74 in 6.2 mi SSW 17.3 mph - N/A   Mostly Cloudy
1:30 AM 51.8 °F 42.8 °F 71% 29.71 in 6.2 mi SSW 18.4 mph - N/A   Mostly Cloudy
2:00 AM 51.8 °F 42.8 °F 71% 29.71 in 6.2 mi SSW 17.3 mph - N/A   Mostly Cloudy
2:30 AM 50.0 °F 44.6 °F 82% 29.68 in 6.2 mi South 19.6 mph - N/A Rain Light Rain
3:00 AM 50.0 °F 44.6 °F 82% 29.65 in 6.2 mi South 18.4 mph - N/A Rain Light Rain
3:30 AM 50.0 °F 44.6 °F 82% 29.65 in 6.2 mi South 16.1 mph - N/A Rain Light Rain
4:00 AM 50.0 °F 46.4 °F 87% 29.62 in 6.2 mi SSW 16.1 mph - N/A Rain Light Rain
4:30 AM 48.2 °F 44.6 °F 87% 29.59 in 6.2 mi South 13.8 mph - N/A Rain Light Rain
5:00 AM 50.0 °F 46.4 °F 87% 29.59 in 6.2 mi South 11.5 mph - N/A Rain Light Rain
5:30 AM 50.0 °F 46.4 °F 87% 29.56 in 6.2 mi SSE 10.4 mph - N/A Rain Light Rain
6:00 AM 50.0 °F 46.4 °F 87% 29.53 in 6.2 mi SSW 13.8 mph - N/A Rain Light Rain
6:30 AM 50.0 °F 46.4 °F 87% 29.53 in 6.2 mi SSW 13.8 mph - N/A Rain Light Rain
7:00 AM 50 °F 46 °F 82% 29.52 in 11 mi SSW 15.7 mph - - Rain Light Rain
7:00 AM 50.0 °F 46.4 °F 87% 29.50 in 6.2 mi SSW 16.1 mph - N/A Rain Light Rain
7:30 AM 50.0 °F 46.4 °F 87% 29.50 in 6.2 mi SSW 12.7 mph - N/A Rain Light Rain
8:00 AM 50.0 °F 48.2 °F 94% 29.50 in 6.2 mi SSW 13.8 mph - N/A Rain Light Rain
8:30 AM 50.0 °F 48.2 °F 94% 29.47 in 6.2 mi SSW 11.5 mph - N/A Rain Light Rain
9:00 AM 50.0 °F 48.2 °F 94% 29.47 in 6.2 mi SSW 11.5 mph - N/A Rain Light Rain
9:30 AM 48.2 °F 44.6 °F 87% 29.47 in 6.2 mi West 13.8 mph - N/A Rain Light Rain
10:00 AM 48.2 °F 44.6 °F 87% 29.47 in 6.2 mi WSW 11.5 mph - N/A   Mostly Cloudy
10:30 AM 48.2 °F 44.6 °F 87% 29.47 in 6.2 mi WSW 10.4 mph - N/A   Mostly Cloudy
11:00 AM 48.2 °F 44.6 °F 87% 29.47 in 6.2 mi SW 9.2 mph - N/A   Mostly Cloudy
11:30 AM 50.0 °F 44.6 °F 82% 29.47 in 6.2 mi WSW 11.5 mph - N/A   Mostly Cloudy
12:00 PM 50.0 °F 44.6 °F 82% 29.44 in 6.2 mi West 10.4 mph - N/A   Mostly Cloudy
12:30 PM 51.8 °F 44.6 °F 76% 29.44 in 6.2 mi SW 10.4 mph - N/A   Mostly Cloudy
1:00 PM 53 °F 44 °F 62% 29.45 in 31 mi SW 13.4 mph - -   Partly Cloudy
1:00 PM 51.8 °F 42.8 °F 71% 29.44 in 6.2 mi WSW 13.8 mph - N/A   Mostly Cloudy
1:30 PM 53.6 °F 44.6 °F 72% 29.44 in 6.2 mi WSW 15.0 mph - N/A   Mostly Cloudy
2:00 PM 53.6 °F 41.0 °F 62% 29.44 in 6.2 mi SW 11.5 mph - N/A   Mostly Cloudy
2:30 PM 48.2 °F 42.8 °F 82% 29.44 in 6.2 mi West 13.8 mph - N/A   Mostly Cloudy
3:00 PM 53.6 °F 42.8 °F 67% 29.44 in 6.2 mi WSW 6.9 mph - N/A   Mostly Cloudy
3:30 PM 55.4 °F 42.8 °F 63% 29.44 in 6.2 mi WSW 10.4 mph - N/A   Mostly Cloudy
4:00 PM 55.4 °F 39.2 °F 54% 29.44 in 6.2 mi SW 11.5 mph - N/A   Mostly Cloudy
4:30 PM 53.6 °F 39.2 °F 58% 29.42 in 6.2 mi WSW 17.3 mph - N/A   Mostly Cloudy
5:00 PM 55.4 °F 41.0 °F 58% 29.42 in 6.2 mi WSW 12.7 mph - N/A   Scattered Clouds
5:30 PM 57.2 °F 41.0 °F 55% 29.42 in 6.2 mi WSW 10.4 mph - N/A   Scattered Clouds
6:00 PM 55.4 °F 39.2 °F 54% 29.44 in 6.2 mi SW 6.9 mph - N/A   Mostly Cloudy
6:30 PM 53.6 °F 39.2 °F 58% 29.42 in 6.2 mi SW 10.4 mph - N/A Rain Rain
7:00 PM 53 °F 42 °F 56% 29.44 in 31 mi SSW 11.2 mph - -   Partly Cloudy
7:00 PM 53.6 °F 41.0 °F 62% 29.42 in 6.2 mi SSW 11.5 mph - N/A   Mostly Cloudy
7:30 PM 53.6 °F 42.8 °F 67% 29.44 in 6.2 mi South 6.9 mph - N/A   Mostly Cloudy
8:00 PM 51.8 °F 42.8 °F 71% 29.44 in 6.2 mi SSE 13.8 mph - N/A   Mostly Cloudy
8:30 PM 50.0 °F 42.8 °F 76% 29.44 in 6.2 mi SSE 10.4 mph - N/A   Scattered Clouds
9:00 PM 50.0 °F 42.8 °F 76% 29.44 in 6.2 mi SSE 10.4 mph - N/A   Scattered Clouds
9:30 PM 48.2 °F 41.0 °F 76% 29.47 in 6.2 mi Variable 3.5 mph - N/A   Scattered Clouds
10:00 PM 46.4 °F 41.0 °F 81% 29.47 in 6.2 mi Calm Calm - N/A   Scattered Clouds
10:30 PM 48.2 °F 41.0 °F 76% 29.47 in 6.2 mi WSW 4.6 mph - N/A   Mostly Cloudy
11:00 PM 48.2 °F 39.2 °F 71% 29.47 in 6.2 mi WSW 6.9 mph - N/A   Mostly Cloudy
11:30 PM 48.2 °F 39.2 °F 71% 29.50 in 6.2 mi WSW 9.2 mph - N/A   Scattered Clouds